sat.trackr.live / text

‹ back to catalog

HORS 2

NORAD 57196 · 2023-091AG

PAYLOAD ACTIVE UNKNOWN

§ Identity

Operator
Country
CIS
Launch date
2023-06-27
Launch site
VOSTO
Launch vehicle
Mass (kg)
RCS (m²)

External: N2YO · Heavens-Above · Gunter

§ Orbital elements

Epoch: 2026-09-21T21:36:12.617856Z

Period
93.87 min
Inclination
97.4997°
Eccentricity
0.0008916
Mean motion
15.34041780 rev/d
Perigee alt
457.7 km
Apogee alt
469.9 km
Semi-major
6,841.9 km
B*
3.0157e-4
RAAN
333.3492°
Arg perigee
100.6014°
Mean anomaly
259.6234°
Rev number
17,934

§ Raw data

HORS 21 57196U 23091AG  26264.90014604  .00009866  00000+0  30157-3 0  99942 57196  97.4997 333.3492 0008916 100.6014 259.6234 15.34041780179346

JSON: /api/v1/satellites/57196 · /tle

For live sub-satellite position, see the globe view (requires WebGL).

§ Visibility from observer

Set your observer location to see the next 7 days of passes ≥ 10°. The values pass through the URL so the page stays shareable.

No JS? Fill the form by hand. The geolocation button needs JavaScript.

§ Radio — SatNOGS DB

ModeDescriptionDownlinkUplink
FSK Mode U - FSK38k4 435.500 MHz
FSK Mode U - Transmitter 435.500 MHz

2 transmitters · refreshed weekly from db.satnogs.org